{"data":{"norad_id":52341,"epoch":"2026-09-20T04:00:03.000096Z","epoch_age_seconds":88455,"freshness":"FRESH","line1":"1 52341U 22045L   26263.16670139  .00005985  00000+0  18236-3 0  9999","line2":"2 52341  53.1611  53.0569 0000931  85.2026 354.8356 15.35398246  5834","mean_motion":15.35398246,"eccentricity":9.31e-5,"inclination_deg":53.1611,"raan_deg":53.0569,"arg_perigee_deg":85.2026,"mean_anomaly_deg":354.8356,"bstar":0.00018236,"rev_number":583,"period_min":93.786742543928,"perigee_km":459.10124419739,"apogee_km":460.37445649453,"semimajor_km":6837.874850346,"source":"CELESTRAK","updated_at":"2026-09-20T09:00:40.022793Z"}}